Location: Bern�tre
(50.1974°N, 2.0915°E)
Time: 05:40:26
(UTC+00:00)

Spot 2 Rocket - Pass Details

Date: 18 September 2020
Orbit: 758 x 772 km, 98.6° (Epoch: 22 October)

Event Time Altitude Azimuth Distance (km) Brightness Sun altitude
Exits shadow 19:48:07 26° 81° (E) 1,463 4.5 -17.9°
Maximum altitude 19:49:05 28° 61° (ENE) 1,402 4.5 -18.0°
Drops below altitude 10° 19:53:20 10° 4° (N) 2,300 6.2 -18.6°
Sets 19:55:54 0° 353° (N) 3,230 7.2 -19.0°
